www.pogodaiklimat.ru

Погода и климат >> Архив погоды >> Буркина-Фасо >> Дедугу


ПОГОДА в Дедугу

  • Прогноз погоды в Дедугу
  • Монитор погоды в Дедугу

АРХИВ ПОГОДЫ в Дедугу

Время (UTC), дата Ветер
(напр.,м/с)
 
Видим.   Явления Облачность Т
(С)
Тd
(С)
f
(%)
Тe
(С)
Тes
(С)
Комфортность P
(гПа)
Po
(гПа)
Тmin
(С)
Tmax
(С)
R
(мм)
R24
(мм)
S
(см)
18 16.07 З 1 15 км 9/1 600 м
[Cb cap Ci sp]
+30.2 +22.7 64 +40 +40 очень
душно
1010.4 976.8 +31.0
21 16.07 СВ 1 18 км 9/0
[Ci sp]
+28.0 +25.1 84 +40 +40 очень
душно
1011.5 977.9
00 17.07 В 1 10 км 9/0
[Ci sp]
+26.9 +24.9 89 +39 +39 очень
душно
1011.7 978.2
03 17.07 ЮВ 3 10 км 9/0
[Ac trans Ci sp]
+26.5 +24.1 87 +37 +37 очень
душно
1011.6 978.2
06 17.07 Ю 2 15 км 9/3 600 м
[Cb cap Ac trans Ci sp]
+26.0 +24.0 89 +36 +36 очень
душно
1012.0 978.6 +25.5
09 17.07 Ю 3 15 км 9/1 600 м
[Sc Ac As Ci sp]
+26.2 +23.2 84 +35 +39 очень
душно
1014.5 980.9
12 17.07 ЮЗ 3 15 км 9/9 600 м
[Cu Sc Ci sp]
+26.5 +23.6 84 +36 +38 очень
душно
1014.5 980.8
15 17.07 Ю 3 15 км 9/3 600 м
[Cu Sc Ac trans Ci sp]
+28.8 +23.7 74 +39 +44 очень
душно
1011.7 978.2
18 17.07 ЮЗ 1 15 км 9/1 600 м
[Sc Ci sp]
+30.2 +23.1 66 +40 +41 очень
душно
1010.9 977.5 +30.5
21 17.07 ЮЗ 2 10 км 9/0
[Ci sp]
+26.0 +23.4 86 +35 +35 очень
душно
1012.0 978.3
00 18.07 ЮЗ 1 10 км 9/0
[Ci sp]
+25.0 +23.6 92 +34 +34 очень
душно
1012.6 978.9
03 18.07 ЮЗ 1 10 км 9/0
[Ci sp]
+24.2 +23.5 96 +33 +33 очень
душно
1011.7 978.1
06 18.07 ЮЗ 2 15 км 9/0
[Ac trans Ci sp]
+23.7 +23.0 96 +31 +31 очень
душно
1011.5 978.0 +23.2
09 18.07 ЮЗ 3 15 км 9/0
[Ac trans Ci sp]
+26.0 +23.1 84 +35 +41 очень
душно
1012.7 979.0
12 18.07 СВ 3 15 км 9/6 600 м
[Cu Sc Ac trans Ci sp]
+29.4 +22.9 68 +39 +43 очень
душно
1014.4 980.8
18 18.07 З 2 15 км 9/0
[Ac As Ci sp]
+30.5 +22.6 63 +40 +40 очень
душно
1008.6 975.1 +31.5
21 18.07 Ю 1 10 км 9/0
[Ac trans Ci sp]
+29.0 +23.1 71 +39 +39 очень
душно
1010.4 977.0
03 19.07 Ю 2 10 км 9/0
[Ac trans Ci sp]
+26.6 +24.0 86 +37 +37 очень
душно
1010.4 977.1
06 19.07 Ю 2 15 км 9/0
[Ac trans Ci sp]
+26.1 +24.4 90 +36 +36 очень
душно
1010.3 977.0 +26.0
09 19.07 Ю 4 15 км 10/5 600 м
[Cb cap Ac As]
+27.3 +24.6 85 +39 +40 очень
душно
1013.6 979.9
12 19.07 З 2 10 км гроза, ливневой дождь 10/1 400 м
[Cb cap Ac As]
+22.8 +22.2 96 +31 +37 очень
душно
1015.4 981.6 7
15 19.07 ЮЗ 3 15 км {гроза, дождь} 9/1 600 м
[Sc Ac trans Ci sp]
+23.8 +22.5 92 +31 +36 очень
душно
1011.6 977.8
18 19.07 В 2 15 км {гроза, дождь} 9/0
[Ac trans Ci sp]
+24.7 +21.9 84 +32 +32 очень
душно
1009.7 976.1 +27.2 7
21 19.07 ЮВ 1 10 км 9/0
[Ac As]
+24.2 +23.0 93 +32 +32 очень
душно
1011.7 978.0
00 20.07 Ю 1 10 км 9/0
[Ac As Ci ing]
+23.5 +22.5 94 +31 +31 очень
душно
1012.6 978.6
03 20.07 Ю 1 10 км 9/0
[Ac trans Ci sp]
+23.2 +22.5 96 +32 +32 очень
душно
1011.8 977.8
06 20.07 Ю 1 15 км 9/0
[Ac trans Ci sp]
+23.4 +22.5 95 +32 +32 очень
душно
1012.4 978.5 +22.5 7
09 20.07 Ю 3 15 км 9/1 600 м
[Sc Ci sp]
+25.5 +22.9 86 +34 +40 очень
душно
1013.7 979.9
12 20.07 ЮЗ 3 15 км 9/5 600 м
[Cu Sc Ac trans Ci sp]
+29.3 +22.4 66 +38 +43 очень
душно
1013.4 979.8
15 20.07 З 1 15 км 9/3 600 м
[Sc Ac As]
+30.0 +23.5 68 +41 +45 опасность
перегрева
1011.5 977.9
18 20.07 С 2 15 км {дождь} 9/3 600 м
[Cb cap Ac As]
+28.7 +23.9 75 +40 +40 очень
душно
1011.5 977.9 +30.8 0.3
21 20.07 Ю 3 10 км в посл. час дождь 10/0
[Ac As]
+24.2 +22.1 88 +31 +31 очень
душно
1012.4 978.6
00 21.07 СЗ 2 10 км {дождь} 9/0
[Ac As]
+24.2 +22.4 90 +32 +32 очень
душно
1012.0 978.4 0.2
03 21.07 ЮВ 3 10 км {дождь} 9/0
[Ac As]
+23.7 +23.0 96 +31 +31 очень
душно
1010.8 977.3
06 21.07 Ю 2 15 км {дождь} 9/0
[Ac trans Ci sp]
+24.0 +23.0 94 +32 +32 очень
душно
1011.4 977.9 +23.0 0.8
09 21.07 Ю 2 15 км слаб. дождь 9/4 600 м
[Cu Sc Ac trans Ci sp]
+24.8 +23.5 92 +33 +37 очень
душно
1014.0 980.1
12 21.07 С 1 10 км гроза, ливневой дождь 9/4 600 м
[Cb cap Ac As Ci sp]
+27.4 +23.4 79 +37 +46 очень
душно
1013.6 979.8 0.8
15 21.07 ЮВ 2 15 км в посл. час гроза {дождь} 9/3 600 м
[Cb cap Ac trans Ci sp]
+27.2 +24.4 85 +38 +43 очень
душно
1010.3 976.6
18 21.07 Ю 1 15 км {гроза, дождь} 9/1 600 м
[Cu Sc Ac trans Ci sp]
+27.3 +23.4 79 +37 +37 очень
душно
1009.0 975.4 +28.2 16
21 21.07 штиль 0 10 км 9/0
[Ac trans Ci sp]
+26.0 +25.0 94 +37 +37 очень
душно
1010.9 977.2
00 22.07 Ю 1 10 км 9/0
[Ac trans Ci sp]
+25.2 +24.6 96 +35 +35 очень
душно
1012.0 978.3
03 22.07 З 1 10 км гроза без осадков 9/1 1200 м
[Cb cap Ac trans Ci sp]
+24.6 +24.3 98 +34 +34 очень
душно
1010.5 976.9
06 22.07 Ю 1 10 км {гроза} 9/1 400 м
[St Ac trans Ci sp]
+24.5 +24.4 99 +34 +34 очень
душно
1011.0 977.3 +24.2 16
09 22.07 В 2 15 км 9/4 600 м
[Cu Sc Ac As Ci sp]
+27.0 +24.2 85 +38 +41 очень
душно
1013.3 979.6
12 22.07 ЮВ 2 15 км в посл. час дождь 9/4 600 м
[Cu Sc Ac As Ci sp]
+27.0 +23.7 82 +37 +45 очень
душно
1012.9 979.2 0.2
15 22.07 Ю 3 15 км 9/4 600 м
[Cu Sc Ci sp]
+31.6 +23.2 61 +42 +47 опасность
перегрева
1010.2 976.8
18 22.07 ЮВ 2 15 км 9/1 600 м
[Cu Sc Ci sp]
+30.0 +23.2 67 +40 +41 очень
душно
1009.8 976.3 +31.0 0.2
21 22.07 ЮВ 1 10 км 9/0
[Ci sp]
+27.3 +23.7 81 +37 +37 очень
душно
1010.2 976.8
00 23.07 ЮВ 1 15 км 9/0
[Ac trans Ci sp]
+26.0 +24.0 89 +36 +36 очень
душно
1011.0 977.4
03 23.07 Ю 1 10 км 9/0
[Ac As Ci sp]
+26.0 +23.9 88 +36 +36 очень
душно
1010.1 976.8
06 23.07 Ю 1 15 км 9/0
[Ac As Ci sp]
+25.6 +23.6 89 +35 +35 очень
душно
1011.0 977.6 +25.4 0.2
09 23.07 Ю 3 15 км 9/0
[Ac trans Ci sp]
+27.2 +23.3 79 +37 +42 очень
душно
1012.3 978.8
12 23.07 ЮЗ 3 15 км 9/5 600 м
[Cu Sc Ac trans Ci sp]
+30.0 +23.2 67 +40 +46 очень
душно
1011.7 978.2
15 23.07 ЮЗ 3 15 км 9/6 600 м
[Cu Sc Ac trans Ci sp]
+31.8 +22.3 57 +41 +43 опасность
перегрева
1009.3 976.0

 

Местоположение метеостанции Дедугу (Буркина-Фасо): широта 12.47 долгота -3.48 высота над уровнем моря 300 м.

В архиве по умолчанию представлена погода в Дедугу за последнюю неделю. Архивные данные за месяц целиком и за предыдущие месяцы, начиная с января 2011 года, Вы можете получить, выбрав интересующий диапазон дат из раскрывающегося списка и нажав кнопку "Ввод!".


*Определитесь, кто Вы:
робот инопланетянин человек

Внимание! Время в таблицах - всемирное. Для получения местного времени необходимо прибавить поправку, которая равна 0 ч.

Смотрите также архив погоды в соседних городах и на ближайших метеорологических станциях:

Погода в Боромо (Буркина-Фасо) (100 км)
Погода в Вахигуе (Буркина-Фасо) (168 км)
Погода в Бобо-Диуласо (Буркина-Фасо) (171 км)
Погода в Сане (Мали) (175 км)
Погода в Уагадугу (Буркина-Фасо) (213 км)
Погода в Кутиале (Мали) (216 км)
Погода в Мопти (Мали) (238 км)
Погода в Гауа (Буркина-Фасо) (240 км)
Погода в Сикасо (Мали) (270 км)
Погода в Ва (Гана) (290 км)

Пояснения к столбцам:

Ветер - указаны скорость ветра в м/с - средняя за 10 мин, порывы в срок и между сроками (в фигурных скобках) и направление, откуда дует ветер: С - северный, СВ - северо-восточный, В - восточный, ЮВ - юго-восточный, Ю - южный, ЮЗ - юго-западный, З - западный, СЗ - северо-западный.
Видимость - горизонтальная дальность видимости в метрах или километрах. При видимости от 1 до 10 км при отсутствии осадков обычно наблюдается дымка, при ухудшении видимости до 1 км и менее - туман. В сухую погоду видимость может ухудшаться дымом, пылью или мглою.
Явления - указаны атмосферные явления, наблюдавшиеся в срок или в последний час перед сроком; фигурными скобками обозначены явления, наблюдавшиеся между сроками (за 1-3 часа до срока); квадратными скобками обозначены град или гололедные отложения с указанием их диаметра в мм.
Облачность - указаны через наклонную черту общая и нижняя облачность в баллах и высота нижней границы облаков в метрах; квадратными скобками обозначены формы облаков: Ci - перистые, Cs - перисто-слоистые, Cc - перисто-кучевые, Ac - высококучевые, As - высокослоистые, Sc - слоисто-кучевые, Ns - слоисто-дождевые, Cu - кучевые, Cb - кучево-дождевые. Подробнее классификацию облаков см. в Атласе облаков (PDF).
T - Температура воздуха - температура, измеренная на высоте 2 м над землей.
Td - Температура точки росы - температура, при понижении до которой содержащийся в воздухе водяной пар достигнет насыщения.
f - Относительная влажность воздуха - влажноcть воздуха, измеренная на высоте 2 м над землей.
Te - Эффективная температура - температура, которую ощущает одетый по сезону человек в тени. Характеристика душности погоды. При расчете учитывается влияние влажности воздуха и скорости ветра на теплоощущения человека.
Tes - Эффективная температура на солнце - температура, которую ощущает человек, с поправкой на солнечный нагрев. Характеристика знойности погоды. Зависит от высоты солнца над горизонтом, облачности и скорости ветра. Ночью, в пасмурную погоду, а также при ветре 12 м/с и более поправка равна нулю.
P - Атмосферное давление - приведенное к уровню моря атмосферное давление.
Po - Атмосферное давление - измеренное на уровне метеостанции атмосферное давление.
Tmin - Минимальная температура - минимум температуры воздуха на высоте 2 м над землей.
Tmax - Максимальная температура - максимум температуры воздуха на высоте 2 м над землей.
R - Количество осадков - Количество выпавших осадков за период времени, мм. При наведении курсора мыши на число - период времени, за который выпало указанное количество осадков.
R24 - Количество осадков - Количество выпавших осадков за 24 часа, мм.
S - Снежный покров - Высота снежного покрова, см. При наведении курсора мыши на число - состояние снежного покрова и степень покрытия местности в баллах.